Weather History for Glendive, MT

Change the Weather History Date:

Thursday, March 28, 2013

  Actual Average Record
Temperature  
Mean Temperature 38 °F -  
Max Temperature 53 °F 45 °F 71 °F (2005)
Min Temperature 24 °F 24 °F 21 °F (2001)
Degree Days  
Heating Degree Days 26    
Moisture  
Dew Point 30 °F    
Average Humidity 79    
Maximum Humidity 100    
Minimum Humidity 47    
Precipitation  
Precipitation 0.00 in - - ()
Sea Level Pressure  
Sea Level Pressure 30.09 in    
Wind  
Wind Speed 7 mph (NE)    
Max Wind Speed 14 mph    
Max Gust Speed -    
Visibility 7 miles    
Events      
Averages and records for this station are not official NWS values.
T = Trace of Precipitation, MM = Missing Value Source: NWS Daily Summary

Daily Weather History Graph

Daily Weather History Graph

Search for Another Location

Airport:

Trip Planner

Search our weather history database for the weather conditions in past years. The results will help you decide how hot, cold, wet, or windy it might be!

Date:

Astronomy

Mar. 28, 2013 Rise Set
Actual Time 6:45 AM MDT 7:23 PM MDT
Civil Twilight 6:14 AM MDT 7:54 PM MDT
Nautical Twilight 5:38 AM MDT 8:30 PM MDT
Astronomical Twilight 5:00 AM MDT 9:09 PM MDT
Moon 9:28 PM MDT (3/28) 7:07 AM MDT (3/28)
Length of Visible Light 13h 39m
Length of Day
12h 37m
Full, 98% of the Moon is Illuminated
Mar 28
Full
Apr 2
Last Quarter
Apr 10
New
Apr 18
First Quarter
Apr 25
Full

Hourly Weather History & Observations

Time (MDT) Temp. Windchill Dew Point Humidity Pressure Visibility Wind Dir Wind Speed Gust Speed Precip Events Conditions
12:15 AM 30.2 °F 23.4 °F 28.4 °F 93% 30.08 in 6.0 mi NE 6.9 mph - N/A   Mostly Cloudy
12:35 AM 30.2 °F - 26.6 °F 86% 30.09 in 7.0 mi Calm Calm - N/A   Mostly Cloudy
12:55 AM 30.2 °F - 26.6 °F 86% 30.10 in 7.0 mi Calm Calm - N/A   Partly Cloudy
1:15 AM 30.2 °F 23.4 °F 28.4 °F 93% 30.08 in 7.0 mi NNE 6.9 mph - N/A   Clear
1:35 AM 30.2 °F 22.6 °F 28.4 °F 93% 30.07 in 6.0 mi North 8.1 mph - N/A   Clear
1:55 AM 30.2 °F 23.4 °F 26.6 °F 86% 30.07 in 7.0 mi NNE 6.9 mph - N/A   Scattered Clouds
2:15 AM 30.2 °F 23.4 °F 26.6 °F 86% 30.07 in 6.0 mi NE 6.9 mph - N/A   Scattered Clouds
2:35 AM 28.4 °F 21.2 °F 26.6 °F 93% 30.07 in 5.0 mi NE 6.9 mph - N/A   Scattered Clouds
2:55 AM 28.4 °F 20.4 °F 26.6 °F 93% 30.07 in 5.0 mi NE 8.1 mph - N/A   Scattered Clouds
3:15 AM 28.4 °F 19.1 °F 26.6 °F 93% 30.06 in 4.0 mi NE 10.4 mph - N/A   Partly Cloudy
3:35 AM 26.6 °F 22.6 °F 24.8 °F 93% 30.06 in 3.0 mi NNE 3.5 mph - N/A   Clear
3:55 AM 26.6 °F 22.6 °F 24.8 °F 93% 30.07 in 3.0 mi North 3.5 mph - N/A   Clear
4:15 AM 26.6 °F 19.1 °F 24.8 °F 93% 30.06 in 4.0 mi NNE 6.9 mph - N/A   Clear
4:55 AM 26.6 °F 21.2 °F 21.2 °F 80% 30.07 in 2.5 mi NNE 4.6 mph - N/A   Clear
5:15 AM 26.6 °F 20.0 °F 24.8 °F 93% 30.07 in 2.5 mi North 5.8 mph - N/A   Partly Cloudy
5:35 AM 26.6 °F 19.1 °F 23.0 °F 86% 30.07 in 3.0 mi NNE 6.9 mph - N/A   Clear
5:55 AM 28.4 °F 21.2 °F 24.8 °F 86% 30.07 in 5.0 mi NNE 6.9 mph - N/A   Clear
6:15 AM 26.6 °F 22.6 °F 23.0 °F 86% 30.07 in 4.0 mi East 3.5 mph - N/A   Clear
6:35 AM 24.8 °F 20.5 °F 21.2 °F 86% 30.08 in 1.8 mi ENE 3.5 mph - N/A   Clear
6:55 AM 26.6 °F - 23.0 °F 86% 30.08 in 1.5 mi Calm Calm - N/A   Clear
7:15 AM 24.8 °F - 24.8 °F 100% 30.09 in 1.5 mi Calm Calm - N/A   Clear
7:35 AM 24.8 °F 20.5 °F 23.0 °F 93% 30.09 in 1.2 mi NE 3.5 mph - N/A   Clear
7:55 AM 26.6 °F 19.1 °F 24.8 °F 93% 30.09 in 1.0 mi NE 6.9 mph - N/A   Clear
8:16 AM 26.6 °F 21.2 °F 26.6 °F 100% 30.10 in 1.2 mi NNE 4.6 mph - N/A   Clear
8:35 AM 28.4 °F 21.2 °F 28.4 °F 100% 30.10 in 2.0 mi NNE 6.9 mph - N/A   Clear
8:55 AM 30.2 °F 23.4 °F 28.4 °F 93% 30.10 in 2.5 mi NE 6.9 mph - N/A   Clear
9:15 AM 30.2 °F 23.4 °F 28.4 °F 93% 30.11 in 5.0 mi NE 6.9 mph - N/A   Clear
9:35 AM 33.8 °F 26.4 °F 28.4 °F 81% 30.11 in 6.0 mi NNE 9.2 mph - N/A   Clear
9:55 AM 33.8 °F 27.0 °F 28.4 °F 81% 30.11 in 7.0 mi NNE 8.1 mph - N/A   Clear
10:15 AM 35.6 °F 29.2 °F 30.2 °F 81% 30.11 in 10.0 mi NE 8.1 mph - N/A   Clear
10:35 AM 37.4 °F 31.4 °F 30.2 °F 75% 30.12 in 10.0 mi NE 8.1 mph - N/A   Clear
10:55 AM 37.4 °F 30.8 °F 30.2 °F 75% 30.12 in 10.0 mi NE 9.2 mph - N/A   Clear
11:15 AM 39.2 °F 32.5 °F 30.2 °F 70% 30.12 in 10.0 mi NE 10.4 mph - N/A   Clear
11:35 AM 41.0 °F 35.8 °F 30.2 °F 65% 30.12 in 10.0 mi ENE 8.1 mph - N/A   Clear
11:56 AM 41.0 °F 37.1 °F 32.0 °F 70% 30.12 in 10.0 mi ENE 5.8 mph - N/A   Clear
12:15 PM 42.8 °F 38.6 °F 32.0 °F 66% 30.12 in 10.0 mi NE 6.9 mph - N/A   Clear
12:35 PM 44.6 °F 40.2 °F 35.6 °F 71% 30.11 in 10.0 mi NE 8.1 mph - N/A   Partly Cloudy
12:55 PM 46.4 °F 41.9 °F 37.4 °F 71% 30.11 in 10.0 mi NE 9.2 mph - N/A   Scattered Clouds
1:15 PM 48.2 °F - 35.6 °F 62% 30.11 in 10.0 mi ENE 9.2 mph - N/A   Partly Cloudy
1:35 PM 48.2 °F - 35.6 °F 62% 30.11 in 10.0 mi NE 10.4 mph - N/A   Clear
1:55 PM 50.0 °F - 35.6 °F 58% 30.10 in 10.0 mi ENE 11.5 mph - N/A   Clear
2:15 PM 51.8 °F - 35.6 °F 54% 30.10 in 10.0 mi NE 11.5 mph - N/A   Clear
2:35 PM 51.8 °F - 35.6 °F 54% 30.09 in 10.0 mi ENE 10.4 mph - N/A   Clear
2:55 PM 51.8 °F - 35.6 °F 54% 30.09 in 10.0 mi ENE 9.2 mph - N/A   Clear
3:15 PM 53.6 °F - 35.6 °F 51% 30.09 in 10.0 mi NE 9.2 mph - N/A   Clear
3:35 PM 53.6 °F - 35.6 °F 51% 30.09 in 10.0 mi ENE 11.5 mph - N/A   Clear
4:15 PM 53.6 °F - 33.8 °F 47% 30.08 in 10.0 mi NE 10.4 mph - N/A   Clear
4:35 PM 53.6 °F - 33.8 °F 47% 30.07 in 10.0 mi NE 11.5 mph - N/A   Clear
4:55 PM 53.6 °F - 35.6 °F 51% 30.07 in 10.0 mi NE 12.7 mph - N/A   Clear
5:15 PM 53.6 °F - 35.6 °F 51% 30.07 in 10.0 mi NE 13.8 mph - N/A   Clear
6:35 PM 48.2 °F - 35.6 °F 62% 30.09 in 10.0 mi NE 13.8 mph - N/A   Clear
6:55 PM 46.4 °F 40.7 °F 35.6 °F 66% 30.09 in 10.0 mi NE 12.7 mph - N/A   Clear
7:15 PM 44.6 °F 38.8 °F 35.6 °F 71% 30.08 in 10.0 mi NE 11.5 mph - N/A   Clear
7:55 PM 39.2 °F 33.0 °F 35.6 °F 87% 30.09 in 8.0 mi NE 9.2 mph - N/A   Clear
9:15 PM 35.6 °F 28.6 °F 32.0 °F 87% 30.10 in 7.0 mi NE 9.2 mph - N/A   Clear
9:35 PM 35.6 °F 29.9 °F 30.2 °F 81% 30.11 in 5.0 mi NE 6.9 mph - N/A   Clear
9:55 PM 33.8 °F 27.7 °F 30.2 °F 87% 30.10 in 5.0 mi NE 6.9 mph - N/A   Clear
10:35 PM 33.8 °F 27.7 °F 30.2 °F 87% 30.10 in 5.0 mi NE 6.9 mph - N/A   Clear
10:55 PM 33.8 °F 28.6 °F 30.2 °F 87% 30.10 in 4.0 mi NE 5.8 mph - N/A   Clear
11:15 PM 33.8 °F 28.6 °F 28.4 °F 81% 30.09 in 5.0 mi ENE 5.8 mph - N/A   Clear
11:35 PM 33.8 °F 29.6 °F 28.4 °F 81% 30.09 in 5.0 mi ENE 4.6 mph - N/A   Clear
11:55 PM 33.8 °F 27.7 °F 30.2 °F 87% 30.10 in 5.0 mi NNE 6.9 mph - N/A   Mostly Cloudy